Regional Weather Roundup
Issued by NWS

Home | Current Version | Previous Version | Text Only | Print | Product List | Glossary Off
Versions: 1 2 3 4 5 6 7 8 9 10 11 12 13 14 15 16 17 18 19 20 21 22 23 24 25 26 27 28 29 30 31 32 33 34 35 36 37 38 39 40 41 42 43 44 45 46 47 48 49 50

000
ASUS43 KOAX 061410
RWRNE

WEATHER ROUNDUP FOR NEBRASKA
NATIONAL WEATHER SERVICE OMAHA NE
900 AM CDT FRI MAY 06 2016

NOTES: SATELLITE DATA IS BEING USED TO AUGMENT CLOUD COVER ABOVE
       12000 FEET.
       "FAIR" INDICATES FEW OR NO CLOUDS BELOW 12,000 FEET WITH NO
       SIGNIFICANT WEATHER AND/OR OBSTRUCTIONS TO VISIBILITY.

  * THESE STATIONS DO NOT REPORT WEATHER SUCH AS RAIN...SNOW OR FOG.

NEZ001>004-019>022-054>056-061500-
NEBRASKA PANHANDLE

CITY           SKY/WX    TMP DP  RH WIND       PRES   REMARKS
SCOTTSBLUFF    CLOUDY    60  46  59 SE10      29.95R
ALLIANCE       MOSUNNY   59  50  72 SE9       29.96R
CHADRON        MOSUNNY   65  48  54 CALM      29.92R
KIMBALL        CLOUDY    56  46  70 SE5       29.98S
SIDNEY         CLOUDY    58  47  66 S10       29.98R
$$

NEZ057>060-069>072-079>082-061500-
SOUTHWEST NEBRASKA

CITY           SKY/WX    TMP DP  RH WIND       PRES   REMARKS
NORTH PLATTE   MOSUNNY   61  48  62 SW12      29.99S
IMPERIAL       CLOUDY    63  48  58 S14       29.99S
MCCOOK         SUNNY     63  50  62 S6        30.00S
OGALLALA       MOSUNNY   56  47  70 CALM      30.00S
$$

NEZ005>010-023>029-035>040-094-061500-
NORTH CENTRAL NEBRASKA

CITY           SKY/WX    TMP DP  RH WIND       PRES   REMARKS
VALENTINE      SUNNY     68  48  48 W10       29.94R
AINSWORTH      SUNNY     65  48  54 SW14      29.95R
BROKEN BOW     LGT RAIN  65  48  54 SW12      30.00R
O`NEILL        SUNNY     69  49  47 SW15      29.95S
ORD            SUNNY     65  47  52 SW14G20   29.98
THEDFORD       SUNNY     67  48  50 SW13G21   29.98S
$$

NEZ041-046>049-061>064-073>077-083>087-061500-
SOUTH CENTRAL NEBRASKA

CITY           SKY/WX    TMP DP  RH WIND       PRES   REMARKS
GRAND ISLAND   SUNNY     67  45  45 SW17G25   30.01
AURORA         SUNNY     67  46  46 SW18      30.01S
HASTINGS       SUNNY     65  45  48 SW14      30.02
HEBRON         SUNNY     65  46  49 SW10      30.05R
HOLDREGE       MOSUNNY   65  45  48 S20G25    30.01S
KEARNEY *      SUNNY     66  45  45 SW18      30.02S
YORK           SUNNY     64  46  52 SW12      30.03R
$$

NEZ011>018-030>034-042>045-061500-
NORTHEAST NEBRASKA

CITY           SKY/WX    TMP DP  RH WIND       PRES   REMARKS
NORFOLK        SUNNY     67  44  43 SW13G25   29.97S
ALBION         SUNNY     65  47  52 SW8       29.99S
BLAIR          SUNNY     66  46  48 SW12      30.01S
COLUMBUS *     SUNNY     66  45  45 SW13      30.02R
FREMONT        SUNNY     66  46  47 SW10      30.01S
TEKAMAH        SUNNY     66  49  54 S7        30.00
WAYNE          SUNNY     67  49  52 SW8       29.99R
$$

NEZ050>053-065>068-078-088>093-061500-
SOUTHEAST NEBRASKA

CITY           SKY/WX    TMP DP  RH WIND       PRES   REMARKS
LINCOLN        SUNNY     69  45  41 SW10      30.03
BEATRICE       SUNNY     64  48  54 SW8       30.05R
NEBRASKA CITY  SUNNY     64  45  49 SW14      30.03S
PLATTSMOUTH    SUNNY     68  47  46 SW13      30.03R
$$

NEZ044-045-051>053-067-061500-
OMAHA AREA

CITY           SKY/WX    TMP DP  RH WIND       PRES   REMARKS
BLAIR          SUNNY     66  46  48 SW12      30.01S
FREMONT        SUNNY     66  46  47 SW10      30.01S
MILLARD        SUNNY     67  46  47 SW8       30.02S
OFFUTT AFB     SUNNY     61  50  66 S2        30.02R
PLATTSMOUTH    SUNNY     68  47  46 SW13      30.03R
WAHOO          FAIR      68  46  44 SW10      30.01S
$$



USA.gov is the U.S. government's official web portal to all federal, state and local government web resources and services.